Home > Weather > Bellinzona > Past weeks

Flag for Switzerland Past Weather in Bellinzona, Ticino, Switzerland — Yesterday and Last 2 Weeks

Now
71 °F

Mild.


Feels Like: 69 °F
Forecast: 65 / 85 °F
Wind: 3 mph from North

Location: Locarno-Magadino

Current Time: Jul 1, 2016 at 10:47:22 PM

Latest Report: Jul 1, 2016 at 10:00 PM


Visibility: N/A

Pressure: 30.01 "Hg

Humidity: 88%

Dew Point: 67 °F

Location of BellinzonaLocation

Past Weather in Bellinzona — Graph

°F

Bellinzona Temperature Yesterday

Maximum temperature yesterday: 78 °F (at 2:00 PM)
Minimum temperature yesterday: 65 °F (at 5:00 AM)
Average temperature yesterday: 70 °F

High & Low Weather Summary for the Past Weeks

 TemperatureHumidityPressure
High88 °F (Jun 24, 5:00 PM)97% (Jun 19, 2:00 AM)30.25 "Hg (Jun 19, 2:00 AM)
Low53 °F (Jun 20, 3:00 AM)24% (Jun 27, 5:00 PM)29.56 "Hg (Jun 16, 11:00 PM)
Average70 °F70%30.02 "Hg
* Reported Jun 16 9:00 PM — Jul 1 9:00 PM, Bellinzona, Weather by CustomWeather, © 2016

Note: Actual official high and low records may vary slightly from our data, if they occured in-between our weather recording intervals... More about our weather records

Advertising

Bellinzona Weather History for the Previous 24 Hours

Scroll right to see more
 ConditionsComfort  
Time TempWeatherWind HumidityBarometerVisibility
9:00 PM
Fri, Jul 1
75 °FMild.No wind77%29.98 "HgN/A
8:00 PM80 °FWarm.5 mph59%29.97 "HgN/A
7:00 PM81 °FWarm.5 mph58%29.97 "HgN/A
6:00 PM82 °FWarm.7 mph56%29.97 "HgN/A
5:00 PM83 °FWarm.7 mph59%29.97 "HgN/A
4:00 PM83 °FWarm.8 mph58%29.98 "HgN/A
3:00 PM82 °FWarm.9 mph56%29.99 "HgN/A
2:00 PM81 °FWarm.9 mph60%30.01 "HgN/A
1:00 PM79 °FWarm.8 mph60%30.02 "HgN/A
12:00 PM78 °FWarm.3 mph66%30.04 "HgN/A
11:00 AM71 °FMild.3 mph72%30.06 "HgN/A
10:00 AM73 °FMild.2 mph68%30.06 "HgN/A
9:00 AM69 °FMild.1 mph77%30.07 "HgN/A
8:00 AM65 °FMild.1 mph88%30.07 "HgN/A
7:00 AM64 °FMild.2 mph90%30.06 "HgN/A
6:00 AM61 °FCool.1 mph92%30.06 "HgN/A
5:00 AM62 °FMild.1 mph92%30.05 "HgN/A
4:00 AM64 °FMild.2 mph90%30.04 "HgN/A
3:00 AM65 °FMild.5 mph92%30.04 "HgN/A
2:00 AM62 °FCool.1 mph97%30.04 "HgN/A
1:00 AM65 °FMild.1 mph96%30.03 "HgN/A
12:00 AM66 °FMild.2 mph96%30.03 "HgN/A
11:00 PM
Thu, Jun 30
69 °FMild.1 mph91%30.03 "HgN/A
10:00 PM69 °FMild.2 mph89%30.01 "HgN/A
Weather by CustomWeather, © 2016

See weather overviewHow to use our weather pages